Location: Windsor
(43.2292°N, 89.3015°W)
Time: 03:38:30
(UTC+00:00)

X-37B - Visible Passes

Search period start: 01 December 2023 00:00
Search period end: 11 December 2023 00:00
Orbit: 277 x 277 km, 45.0° (Epoch: 01 November)

Date Brightness Start Highest point End Pass type
(mag) Time Alt. Az. Time Alt. Az. Time Alt. Az.
01 Dec 3.2 00:34:20 10° WSW 00:34:58 16° WSW 00:34:58 16° WSW visible
01 Dec 1.3 23:01:11 10° SW 23:03:24 30° SSE 23:05:36 10° E visible
02 Dec 3.3 00:35:03 10° W 00:35:38 15° W 00:35:38 15° W visible
02 Dec 0.4 23:01:36 10° WSW 23:04:01 51° SSE 23:06:15 11° E visible
03 Dec 3.3 00:35:48 10° W 00:36:17 14° W 00:36:17 14° W visible
03 Dec -0.1 23:02:13 10° WSW 23:04:40 83° SSE 23:06:53 12° ENE visible
04 Dec 3.4 00:36:33 10° WNW 00:36:55 13° WNW 00:36:55 13° WNW visible
04 Dec -0.1 23:02:55 10° W 23:05:22 69° N 23:07:31 12° ENE visible
05 Dec 3.4 00:37:16 10° WNW 00:37:34 12° WNW 00:37:34 12° WNW visible
05 Dec 0.2 23:03:40 10° W 23:06:05 55° N 23:08:11 13° ENE visible
06 Dec 3.5 00:37:58 10° WNW 00:38:13 12° WNW 00:38:13 12° WNW visible
06 Dec 0.2 23:04:25 10° W 23:06:50 51° N 23:08:53 13° ENE visible
07 Dec 3.5 00:38:40 10° WNW 00:38:56 12° WNW 00:38:56 12° WNW visible
07 Dec 0.1 23:05:09 10° WNW 23:07:34 54° N 23:09:39 13° E visible
08 Dec 3.5 00:39:23 10° W 00:39:43 13° W 00:39:43 13° W visible
08 Dec -0.1 23:05:51 10° WNW 23:08:17 65° N 23:10:32 12° E visible
09 Dec 3.5 00:40:12 10° W 00:40:36 13° W 00:40:36 13° W visible
09 Dec -0.2 23:06:32 10° WNW 23:09:00 90° SSW 23:11:27 10° ESE visible
10 Dec 3.6 00:41:14 10° WSW 00:41:38 12° WSW 00:41:38 12° WSW visible
10 Dec 0.5 23:07:14 10° W 23:09:40 57° SSW 23:12:05 10° ESE visible
